Карточка аэропорта URSS

Внимание!
Информация на этой странице в стадии наполнения.
Если вы не увидели какой-то информации, или заметили неточность - пожалуйста сообщите нам!
Спасибо!
Команда RU-STAFF
Название аэропортаСочи
Название аэропорта (англ.)Sochi
Превышение89 ft. (27.1 m.)
Координаты43°26.634', 39°56.55'
Высота перехода13000 ft
Эшелон переходаFL140 (QNH >= 1013); FL150 (QNH 977-1012); FL160 (QNH < 977)
Коды ответчика1060-1077
Зона ОрВДРостов-на-Дону РПИ (URRV)
Данные METARURSS 121430Z 24003MPS 9999 FEW030TCU 28/22 Q1010 R02/010070 R06/010070 NOSIG RMK R06/26003G06MPS MT OBSC QFE756
Проноз погоды (TAF)URSS 121355Z 1215/1315 25003G08MPS 9999 BKN030 BECMG 1218/1219 05003G08MPS OVC030 BECMG 1307/1308 25004G09MPS FEW030 SCT100 BECMG 1309/1311 28005G10MPS
NOTAMshow/hide NOTAM
AWOS   TABLE

Информация о ВПП

ВПП Длина ВПП (м.) Покрытие Курс ВПП Частота ILS
022500Цементобетон22110.5
062890Цементобетон58111.1
202500Цементобетон202 
242890Цементобетон238 

Диспетчерские позиции

Позывной Наименование органа УВД Частота
URSS_GNDСочи-Руление119.000
URSS_TWRСочи-Старт121.200
URSS_APPСочи-Подход124.600
URSS_R_APPСочи-Круг119.700
URSS_DELСочи-Деливери132.700
URSS_FM1119.000



Спутниковое изображение